This is the latest recevied weather packets stored in our database for station/object KC1OEK-13. If no packets are shown the sender has not sent any weather packets the latest 10 day(s).
| Time | Temp. | Humidity | Pressure | Rain* | Wind** | Luminosity | Snow |
|---|---|---|---|---|---|---|---|
| 1787840277 | 23.89° C | 85% | 1020 hPa | 0 mm | - | 180 W/m² | - |
| 1787839976 | 23.89° C | 86% | 1020.1 hPa | 0 mm | - | 168 W/m² | - |
| 1787839672 | 23.33° C | 85% | 1020.2 hPa | 0 mm | - | 187 W/m² | - |
| 1787839371 | 23.89° C | 86% | 1020 hPa | 0 mm | - | 197 W/m² | - |
| 1787839066 | 23.89° C | 85% | 1020.1 hPa | 0 mm | - | 208 W/m² | - |
| 1787838765 | 23.33° C | 86% | 1020.1 hPa | 0 mm | - | 210 W/m² | - |
| 1787838464 | 23.33° C | 86% | 1020.2 hPa | 0 mm | - | 227 W/m² | - |
| 1787838158 | 23.33° C | 85% | 1020.2 hPa | 0 mm | - | 232 W/m² | - |
| 1787837853 | 23.33° C | 87% | 1020.2 hPa | 0 mm | - | 220 W/m² | - |
| 1787837552 | 23.33° C | 87% | 1020.1 hPa | 0 mm | - | 209 W/m² | - |
| 1787837247 | 23.33° C | 88% | 1020.1 hPa | 0 mm | - | 252 W/m² | - |
| 1787836947 | 22.78° C | 89% | 1020.2 hPa | 0 mm | - | 195 W/m² | - |
| 1787836642 | 23.33° C | 88% | 1020.1 hPa | 0 mm | - | 170 W/m² | - |
| 1787836341 | 23.33° C | 88% | 1020.1 hPa | 0 mm | - | 195 W/m² | - |
| 1787836037 | 22.78° C | 88% | 1020 hPa | 0 mm | - | 207 W/m² | - |
| 1787835733 | 22.78° C | 88% | 1020 hPa | 0 mm | - | 218 W/m² | - |
| 1787835427 | 22.22° C | 89% | 1020 hPa | 0 mm | - | 353 W/m² | - |
| 1787835123 | 21.67° C | 91% | 1020.2 hPa | 0 mm | - | 325 W/m² | - |
| 1787834821 | 21.67° C | 91% | 1020 hPa | 0 mm | - | 225 W/m² | - |
| 1787834516 | 21.11° C | 91% | 1020.2 hPa | 0 mm | - | 181 W/m² | - |
| 1787834212 | 21.11° C | 91% | 1020.1 hPa | 0 mm | - | 171 W/m² | - |
| 1787833907 | 21.67° C | 91% | 1020.1 hPa | 0 mm | - | 197 W/m² | - |
| 1787833602 | 20.56° C | 92% | 1020.1 hPa | 0 mm | - | 254 W/m² | - |
| 1787833298 | 20.56° C | 94% | 1020.1 hPa | 0 mm | - | 205 W/m² | - |
| 1787832993 | 19.44° C | 95% | 1020 hPa | 0 mm | - | 175 W/m² | - |
* Rain latest hour (hover to see other rain measurements)
** Current wind speed in m/s (hover to see current wind gust speed)